Time,TemperatureF,DewpointF,PressureIn,WindDirection,WindDirectionDegrees,WindSpeedMPH,WindSpeedGustMPH,Humidity,HourlyPrecipIn,Conditions,Clouds,dailyrainin,SoftwareType,DateUTC
2013-02-27 00:00:00,51.7,45.7,29.91,WNW,295,0.0,0.0,80,0.00,,CLR,0.00,VWS V14.01,2013-02-27 06:00:00,
2013-02-27 00:05:00,51.7,45.7,29.91,WNW,295,0.0,0.0,80,0.00,,CLR,0.00,VWS V14.01,2013-02-27 06:05:00,
2013-02-27 00:10:00,51.5,45.9,29.91,WNW,295,0.0,0.0,81,0.00,,CLR,0.00,VWS V14.01,2013-02-27 06:10:00,
2013-02-27 00:15:00,51.4,45.8,29.91,WNW,295,0.0,0.0,81,0.00,,CLR,0.00,VWS V14.01,2013-02-27 06:15:00,
2013-02-27 00:20:00,51.3,45.7,29.91,WNW,295,0.0,0.0,81,0.00,,CLR,0.00,VWS V14.01,2013-02-27 06:20:00,
2013-02-27 00:25:00,51.1,45.8,29.91,WNW,295,0.0,0.0,82,0.00,,CLR,0.00,VWS V14.01,2013-02-27 06:25:00,
2013-02-27 00:30:00,50.9,46.2,29.91,WNW,295,0.0,0.0,84,0.00,,CLR,0.00,VWS V14.01,2013-02-27 06:30:00,
2013-02-27 00:35:00,50.8,46.2,29.91,WNW,295,0.0,0.0,84,0.00,,CLR,0.00,VWS V14.01,2013-02-27 06:35:00,
2013-02-27 00:40:00,50.6,46.6,29.91,WNW,295,0.0,0.0,86,0.00,,CLR,0.00,VWS V14.01,2013-02-27 06:40:00,
2013-02-27 00:45:00,50.4,46.7,29.91,WNW,295,0.0,0.0,87,0.00,,CLR,0.00,VWS V14.01,2013-02-27 06:45:00,
2013-02-27 00:50:00,50.2,46.8,29.91,WNW,295,0.0,0.0,88,0.00,,CLR,0.00,VWS V14.01,2013-02-27 06:50:00,
2013-02-27 00:55:00,50.0,46.6,29.91,WNW,295,0.0,0.0,88,0.00,,CLR,0.00,VWS V14.01,2013-02-27 06:55:00,
2013-02-27 01:00:00,49.8,46.4,29.91,WNW,295,0.0,0.0,88,0.00,,CLR,0.00,VWS V14.01,2013-02-27 07:00:00,
2013-02-27 01:05:00,49.6,46.5,29.92,WNW,295,0.0,0.0,89,0.00,,CLR,0.00,VWS V14.01,2013-02-27 07:05:00,
2013-02-27 01:10:00,49.4,46.3,29.92,WNW,295,0.0,0.0,89,0.00,,CLR,0.00,VWS V14.01,2013-02-27 07:10:00,
2013-02-27 01:15:00,49.3,46.5,29.92,WNW,295,0.0,0.0,90,0.00,,CLR,0.00,VWS V14.01,2013-02-27 07:15:00,
2013-02-27 01:20:00,49.3,46.5,29.91,WNW,295,0.0,0.0,90,0.00,,CLR,0.00,VWS V14.01,2013-02-27 07:20:00,
2013-02-27 01:25:00,49.2,46.4,29.91,WNW,295,0.0,0.0,90,0.00,,CLR,0.00,VWS V14.01,2013-02-27 07:25:00,
2013-02-27 01:30:00,49.0,46.2,29.91,WNW,295,0.0,0.0,90,0.00,,CLR,0.00,VWS V14.01,2013-02-27 07:30:00,
2013-02-27 01:35:00,48.8,46.3,29.92,WNW,295,0.0,0.0,91,0.00,,CLR,0.00,VWS V14.01,2013-02-27 07:35:00,
2013-02-27 01:40:00,48.7,46.2,29.92,WNW,295,0.0,0.0,91,0.00,,CLR,0.00,VWS V14.01,2013-02-27 07:40:00,
2013-02-27 01:45:00,48.5,46.0,29.92,WNW,295,0.0,0.0,91,0.00,,CLR,0.00,VWS V14.01,2013-02-27 07:45:00,
2013-02-27 01:50:00,48.4,45.9,29.92,WNW,295,0.0,0.0,91,0.00,,CLR,0.00,VWS V14.01,2013-02-27 07:50:00,
2013-02-27 01:55:00,48.3,46.1,29.92,WNW,295,0.0,0.0,92,0.00,,CLR,0.00,VWS V14.01,2013-02-27 07:55:00,
2013-02-27 02:00:00,48.2,46.0,29.91,West,270,0.0,3.0,92,0.00,,CLR,0.00,VWS V14.01,2013-02-27 08:00:00,
2013-02-27 02:05:00,48.2,46.0,29.91,West,270,0.0,0.0,92,0.00,,CLR,0.00,VWS V14.01,2013-02-27 08:05:00,
2013-02-27 02:10:00,48.1,45.9,29.92,West,270,0.0,0.0,92,0.00,,CLR,0.00,VWS V14.01,2013-02-27 08:10:00,
2013-02-27 02:15:00,48.0,45.8,29.91,West,270,0.0,0.0,92,0.00,,CLR,0.00,VWS V14.01,2013-02-27 08:15:00,
2013-02-27 02:20:00,47.9,45.7,29.91,West,270,0.0,0.0,92,0.00,,CLR,0.00,VWS V14.01,2013-02-27 08:20:00,
2013-02-27 02:25:00,47.8,45.6,29.91,West,270,0.0,0.0,92,0.00,,CLR,0.00,VWS V14.01,2013-02-27 08:25:00,
2013-02-27 02:30:00,47.8,45.6,29.91,West,270,0.0,0.0,92,0.00,,CLR,0.00,VWS V14.01,2013-02-27 08:30:00,
2013-02-27 02:35:00,47.7,45.8,29.91,West,270,0.0,0.0,93,0.00,,CLR,0.00,VWS V14.01,2013-02-27 08:35:00,
2013-02-27 02:40:00,47.6,45.7,29.91,West,270,0.0,0.0,93,0.00,,CLR,0.00,VWS V14.01,2013-02-27 08:40:00,
2013-02-27 02:45:00,47.6,45.7,29.92,West,270,0.0,0.0,93,0.00,,CLR,0.00,VWS V14.01,2013-02-27 08:45:00,
2013-02-27 02:50:00,47.5,45.6,29.92,West,270,0.0,0.0,93,0.00,,CLR,0.00,VWS V14.01,2013-02-27 08:50:00,
2013-02-27 02:55:00,47.4,45.5,29.92,West,270,0.0,0.0,93,0.00,,CLR,0.00,VWS V14.01,2013-02-27 08:55:00,
2013-02-27 03:00:00,47.4,45.5,29.92,West,270,0.0,0.0,93,0.00,,CLR,0.00,VWS V14.01,2013-02-27 09:00:00,
2013-02-27 03:05:00,47.2,45.3,29.92,West,270,0.0,0.0,93,0.00,,CLR,0.00,VWS V14.01,2013-02-27 09:05:00,
2013-02-27 03:10:00,47.1,45.2,29.91,West,270,0.0,0.0,93,0.00,,CLR,0.00,VWS V14.01,2013-02-27 09:10:00,
2013-02-27 03:15:00,47.0,45.4,29.91,West,270,0.0,0.0,94,0.00,,CLR,0.00,VWS V14.01,2013-02-27 09:15:00,
2013-02-27 03:20:00,46.9,45.0,29.92,West,270,0.0,0.0,93,0.00,,CLR,0.00,VWS V14.01,2013-02-27 09:20:00,
2013-02-27 03:25:00,46.8,44.9,29.92,West,271,0.0,0.0,93,0.00,,CLR,0.00,VWS V14.01,2013-02-27 09:25:00,
2013-02-27 03:30:00,46.7,45.1,29.92,West,270,0.0,0.0,94,0.00,,CLR,0.00,VWS V14.01,2013-02-27 09:30:00,
2013-02-27 03:35:00,46.5,44.9,29.92,West,270,0.0,0.0,94,0.00,,CLR,0.00,VWS V14.01,2013-02-27 09:35:00,
2013-02-27 03:40:00,46.5,44.9,29.92,West,270,0.0,0.0,94,0.00,,CLR,0.00,VWS V14.01,2013-02-27 09:40:00,
2013-02-27 03:45:00,46.4,44.8,29.92,West,270,0.0,0.0,94,0.00,,CLR,0.00,VWS V14.01,2013-02-27 09:45:00,
2013-02-27 03:50:00,46.4,44.8,29.92,West,271,0.0,0.0,94,0.00,,CLR,0.00,VWS V14.01,2013-02-27 09:50:00,
2013-02-27 03:55:00,46.3,44.7,29.93,West,270,0.0,0.0,94,0.00,,CLR,0.00,VWS V14.01,2013-02-27 09:55:00,
2013-02-27 04:00:00,46.3,44.7,29.92,West,270,0.0,0.0,94,0.00,,CLR,0.00,VWS V14.01,2013-02-27 10:00:00,
2013-02-27 04:05:00,46.2,44.6,29.92,West,271,0.0,0.0,94,0.00,,CLR,0.00,VWS V14.01,2013-02-27 10:05:00,
2013-02-27 04:10:00,46.2,44.6,29.92,West,270,0.0,0.0,94,0.00,,CLR,0.00,VWS V14.01,2013-02-27 10:10:00,
2013-02-27 04:15:00,46.1,44.5,29.92,West,271,0.0,0.0,94,0.00,,CLR,0.00,VWS V14.01,2013-02-27 10:15:00,
2013-02-27 04:20:00,46.1,44.5,29.93,West,270,0.0,0.0,94,0.00,,CLR,0.00,VWS V14.01,2013-02-27 10:20:00,
2013-02-27 04:25:00,46.1,44.5,29.93,West,271,0.0,0.0,94,0.00,,CLR,0.00,VWS V14.01,2013-02-27 10:25:00,
2013-02-27 04:30:00,46.1,44.5,29.94,West,270,0.0,0.0,94,0.00,,CLR,0.00,VWS V14.01,2013-02-27 10:30:00,
2013-02-27 04:35:00,46.1,44.5,29.93,West,270,0.0,0.0,94,0.00,,CLR,0.00,VWS V14.01,2013-02-27 10:35:00,
2013-02-27 04:40:00,46.1,44.5,29.94,West,270,0.0,0.0,94,0.00,,CLR,0.00,VWS V14.01,2013-02-27 10:40:00,
2013-02-27 04:45:00,46.0,44.4,29.94,West,270,0.0,0.0,94,0.00,,CLR,0.00,VWS V14.01,2013-02-27 10:45:00,
2013-02-27 04:50:00,46.0,44.4,29.94,West,270,0.0,0.0,94,0.00,,CLR,0.00,VWS V14.01,2013-02-27 10:50:00,
2013-02-27 04:55:00,46.0,44.4,29.94,West,270,0.0,0.0,94,0.00,,CLR,0.00,VWS V14.01,2013-02-27 10:55:00,
2013-02-27 05:00:00,46.0,44.4,29.94,West,271,0.0,0.0,94,0.00,,CLR,0.00,VWS V14.01,2013-02-27 11:00:00,
2013-02-27 05:05:00,46.1,44.5,29.94,West,270,0.0,0.0,94,0.00,,CLR,0.00,VWS V14.01,2013-02-27 11:05:00,
2013-02-27 05:10:00,46.0,44.4,29.94,West,271,0.0,0.0,94,0.00,,CLR,0.00,VWS V14.01,2013-02-27 11:10:00,
2013-02-27 05:15:00,45.9,44.3,29.94,West,271,0.0,0.0,94,0.00,,CLR,0.00,VWS V14.01,2013-02-27 11:15:00,
2013-02-27 05:20:00,45.9,44.3,29.94,West,270,0.0,0.0,94,0.00,,CLR,0.00,VWS V14.01,2013-02-27 11:20:00,
2013-02-27 05:25:00,45.9,44.3,29.94,West,271,0.0,0.0,94,0.00,,CLR,0.00,VWS V14.01,2013-02-27 11:25:00,
2013-02-27 05:30:00,45.9,44.3,29.94,West,270,0.0,0.0,94,0.00,,CLR,0.00,VWS V14.01,2013-02-27 11:30:00,
2013-02-27 05:35:00,45.8,44.2,29.94,West,270,0.0,0.0,94,0.00,,CLR,0.00,VWS V14.01,2013-02-27 11:35:00,
2013-02-27 05:40:00,45.8,44.2,29.94,West,270,0.0,0.0,94,0.00,,CLR,0.00,VWS V14.01,2013-02-27 11:40:00,
2013-02-27 05:45:00,45.8,44.5,29.94,West,270,0.0,0.0,95,0.00,,CLR,0.00,VWS V14.01,2013-02-27 11:45:00,
2013-02-27 05:50:00,45.6,44.2,29.94,West,270,0.0,0.0,95,0.00,,CLR,0.00,VWS V14.01,2013-02-27 11:50:00,
2013-02-27 05:55:00,45.5,43.9,29.94,West,271,0.0,0.0,94,0.00,,CLR,0.00,VWS V14.01,2013-02-27 11:55:00,
2013-02-27 06:00:00,45.5,43.9,29.94,West,270,0.0,0.0,94,0.00,,CLR,0.00,VWS V14.01,2013-02-27 12:00:00,
2013-02-27 06:05:00,45.5,44.2,29.94,West,270,0.0,0.0,95,0.00,,CLR,0.00,VWS V14.01,2013-02-27 12:05:00,
2013-02-27 06:10:00,45.4,44.0,29.94,West,270,0.0,0.0,95,0.00,,CLR,0.00,VWS V14.01,2013-02-27 12:10:00,
2013-02-27 06:15:00,45.3,44.0,29.94,West,270,0.0,0.0,95,0.00,,CLR,0.00,VWS V14.01,2013-02-27 12:15:00,
2013-02-27 06:20:00,45.3,44.0,29.94,West,270,0.0,0.0,95,0.00,,CLR,0.00,VWS V14.01,2013-02-27 12:20:00,
2013-02-27 06:25:00,45.2,43.9,29.94,West,270,0.0,0.0,95,0.00,,CLR,0.00,VWS V14.01,2013-02-27 12:25:00,
2013-02-27 06:30:00,45.2,43.9,29.94,West,270,0.0,0.0,95,0.00,,CLR,0.00,VWS V14.01,2013-02-27 12:30:00,
2013-02-27 06:35:00,45.2,43.9,29.95,West,270,0.0,0.0,95,0.00,,CLR,0.00,VWS V14.01,2013-02-27 12:35:00,
2013-02-27 06:40:00,45.1,43.8,29.94,West,270,0.0,0.0,95,0.00,,CLR,0.00,VWS V14.01,2013-02-27 12:40:00,
2013-02-27 06:45:00,45.1,43.8,29.94,West,270,0.0,0.0,95,0.00,,CLR,0.00,VWS V14.01,2013-02-27 12:45:00,
2013-02-27 06:50:00,45.2,43.9,29.95,West,270,0.0,0.0,95,0.00,,CLR,0.00,VWS V14.01,2013-02-27 12:50:00,
2013-02-27 06:55:00,45.2,43.9,29.95,West,270,0.0,0.0,95,0.00,,CLR,0.00,VWS V14.01,2013-02-27 12:55:00,
2013-02-27 07:00:00,45.2,43.9,29.95,West,270,0.0,0.0,95,0.00,,CLR,0.00,VWS V14.01,2013-02-27 13:00:00,
2013-02-27 07:05:00,45.5,44.2,29.95,West,270,0.0,0.0,95,0.00,,CLR,0.00,VWS V14.01,2013-02-27 13:05:00,
2013-02-27 07:10:00,45.6,44.2,29.96,West,270,0.0,0.0,95,0.00,,CLR,0.00,VWS V14.01,2013-02-27 13:10:00,
2013-02-27 07:15:00,45.8,44.5,29.96,West,271,0.0,0.0,95,0.00,,CLR,0.00,VWS V14.01,2013-02-27 13:15:00,
2013-02-27 07:20:00,46.0,44.7,29.96,West,270,0.0,0.0,95,0.00,,CLR,0.00,VWS V14.01,2013-02-27 13:20:00,
2013-02-27 07:25:00,46.1,44.8,29.96,West,271,0.0,0.0,95,0.00,,CLR,0.00,VWS V14.01,2013-02-27 13:25:00,
2013-02-27 07:30:00,46.3,45.0,29.97,West,270,0.0,0.0,95,0.00,,CLR,0.00,VWS V14.01,2013-02-27 13:30:00,
2013-02-27 07:35:00,46.5,45.2,29.97,West,271,0.0,0.0,95,0.00,,CLR,0.00,VWS V14.01,2013-02-27 13:35:00,
2013-02-27 07:40:00,46.7,45.3,29.97,West,271,0.0,0.0,95,0.00,,CLR,0.00,VWS V14.01,2013-02-27 13:40:00,
2013-02-27 07:45:00,46.8,45.5,29.97,West,271,0.0,0.0,95,0.00,,CLR,0.00,VWS V14.01,2013-02-27 13:45:00,
2013-02-27 07:50:00,47.2,45.8,29.97,West,270,0.0,0.0,95,0.00,,CLR,0.00,VWS V14.01,2013-02-27 13:50:00,
2013-02-27 07:55:00,47.4,46.0,29.97,West,271,0.0,0.0,95,0.00,,CLR,0.00,VWS V14.01,2013-02-27 13:55:00,
2013-02-27 08:00:00,47.8,46.4,29.97,West,271,0.0,0.0,95,0.00,,CLR,0.00,VWS V14.01,2013-02-27 14:00:00,
2013-02-27 08:05:00,48.2,46.6,29.98,West,270,0.0,0.0,94,0.00,,CLR,0.00,VWS V14.01,2013-02-27 14:05:00,
2013-02-27 08:10:00,48.6,46.7,29.98,West,270,0.0,0.0,93,0.00,,CLR,0.00,VWS V14.01,2013-02-27 14:10:00,
2013-02-27 08:15:00,49.0,46.8,29.99,West,270,0.0,0.0,92,0.00,,CLR,0.00,VWS V14.01,2013-02-27 14:15:00,
2013-02-27 08:20:00,49.5,46.7,29.99,West,259,1.5,3.0,90,0.00,,CLR,0.00,VWS V14.01,2013-02-27 14:20:00,
2013-02-27 08:25:00,50.0,46.6,29.99,SSW,208,0.0,3.0,88,0.00,,CLR,0.00,VWS V14.01,2013-02-27 14:25:00,
2013-02-27 08:30:00,50.6,47.2,29.99,SSW,207,6.0,6.0,88,0.00,,CLR,0.00,VWS V14.01,2013-02-27 14:30:00,
2013-02-27 08:35:00,51.0,46.7,30.00,SSW,211,3.0,6.0,85,0.00,,CLR,0.00,VWS V14.01,2013-02-27 14:35:00,
2013-02-27 08:40:00,51.4,46.4,29.99,SSW,205,3.0,4.5,83,0.00,,CLR,0.00,VWS V14.01,2013-02-27 14:40:00,
2013-02-27 08:45:00,51.8,46.5,30.00,SSW,207,0.0,1.5,82,0.00,,CLR,0.00,VWS V14.01,2013-02-27 14:45:00,
2013-02-27 08:50:00,52.2,46.2,30.00,SSW,205,1.5,4.5,80,0.00,,CLR,0.00,VWS V14.01,2013-02-27 14:50:00,
2013-02-27 08:55:00,52.5,46.2,30.00,SSW,205,0.0,3.0,79,0.00,,CLR,0.00,VWS V14.01,2013-02-27 14:55:00,
2013-02-27 09:00:00,52.9,46.2,30.00,SSW,205,0.0,4.5,78,0.00,,CLR,0.00,VWS V14.01,2013-02-27 15:00:00,
2013-02-27 09:05:00,53.2,46.2,30.00,SSW,210,3.0,4.5,77,0.00,,CLR,0.00,VWS V14.01,2013-02-27 15:05:00,
2013-02-27 09:10:00,53.6,46.2,30.00,SSW,210,0.0,1.5,76,0.00,,CLR,0.00,VWS V14.01,2013-02-27 15:10:00,
2013-02-27 09:15:00,53.9,46.2,30.01,SSW,210,0.0,1.5,75,0.00,,CLR,0.00,VWS V14.01,2013-02-27 15:15:00,
2013-02-27 09:20:00,54.3,45.8,30.01,SSW,210,0.0,0.0,73,0.00,,CLR,0.00,VWS V14.01,2013-02-27 15:20:00,
2013-02-27 09:25:00,54.8,46.7,30.01,SSW,210,0.0,0.0,74,0.00,,CLR,0.00,VWS V14.01,2013-02-27 15:25:00,
2013-02-27 09:30:00,55.5,47.0,30.02,SSW,213,0.0,0.0,73,0.00,,CLR,0.00,VWS V14.01,2013-02-27 15:30:00,
2013-02-27 09:35:00,56.0,46.0,30.02,SSW,213,0.0,1.5,69,0.00,,CLR,0.00,VWS V14.01,2013-02-27 15:35:00,
2013-02-27 09:40:00,56.7,47.4,30.01,WSW,245,0.0,1.5,71,0.00,,CLR,0.00,VWS V14.01,2013-02-27 15:40:00,
2013-02-27 09:45:00,57.1,45.5,30.02,SW,218,0.0,3.0,65,0.00,,CLR,0.00,VWS V14.01,2013-02-27 15:45:00,
2013-02-27 09:50:00,57.4,45.8,30.02,SW,216,0.0,1.5,65,0.00,,CLR,0.00,VWS V14.01,2013-02-27 15:50:00,
2013-02-27 09:55:00,57.8,45.3,30.02,SW,216,0.0,0.0,63,0.00,,CLR,0.00,VWS V14.01,2013-02-27 15:55:00,
2013-02-27 10:00:00,57.8,44.0,30.02,NW,309,0.0,4.5,60,0.00,,CLR,0.00,VWS V14.01,2013-02-27 16:00:00,
2013-02-27 10:05:00,57.9,45.0,30.03,NW,309,0.0,0.0,62,0.00,,CLR,0.00,VWS V14.01,2013-02-27 16:05:00,
2013-02-27 10:10:00,58.4,45.9,30.03,NW,309,0.0,1.5,63,0.00,,CLR,0.00,VWS V14.01,2013-02-27 16:10:00,
2013-02-27 10:15:00,58.6,45.6,30.03,NNW,343,0.0,1.5,62,0.00,,CLR,0.00,VWS V14.01,2013-02-27 16:15:00,
2013-02-27 10:20:00,59.0,45.2,30.02,NW,309,1.5,4.5,60,0.00,,CLR,0.00,VWS V14.01,2013-02-27 16:20:00,
2013-02-27 10:25:00,59.3,45.9,30.02,NW,309,0.0,1.5,61,0.00,,CLR,0.00,VWS V14.01,2013-02-27 16:25:00,
2013-02-27 10:30:00,59.6,44.8,30.02,NNW,342,0.0,6.0,58,0.00,,CLR,0.00,VWS V14.01,2013-02-27 16:30:00,
2013-02-27 10:35:00,59.7,45.4,30.02,NNW,347,1.5,3.0,59,0.00,,CLR,0.00,VWS V14.01,2013-02-27 16:35:00,
2013-02-27 10:40:00,59.8,45.0,30.02,NNW,347,0.0,3.0,58,0.00,,CLR,0.00,VWS V14.01,2013-02-27 16:40:00,
2013-02-27 10:45:00,60.2,44.5,30.02,NNW,340,1.5,3.0,56,0.00,,CLR,0.00,VWS V14.01,2013-02-27 16:45:00,
2013-02-27 10:50:00,60.9,44.2,30.02,NW,326,7.5,9.0,54,0.00,,CLR,0.00,VWS V14.01,2013-02-27 16:50:00,
2013-02-27 10:55:00,61.3,43.0,30.02,WNW,287,1.5,4.5,51,0.00,,CLR,0.00,VWS V14.01,2013-02-27 16:55:00,
2013-02-27 11:00:00,61.6,43.8,30.02,NW,326,4.5,7.5,52,0.00,,CLR,0.00,VWS V14.01,2013-02-27 17:00:00,
2013-02-27 11:05:00,61.6,43.8,30.02,NW,321,7.5,7.5,52,0.00,,CLR,0.00,VWS V14.01,2013-02-27 17:05:00,
2013-02-27 11:10:00,61.8,44.5,30.01,SSW,192,1.5,4.5,53,0.00,,CLR,0.00,VWS V14.01,2013-02-27 17:10:00,
2013-02-27 11:15:00,61.9,44.1,30.01,WSW,238,6.0,6.0,52,0.00,,CLR,0.00,VWS V14.01,2013-02-27 17:15:00,
2013-02-27 11:20:00,62.6,44.2,30.01,WSW,254,4.5,9.0,51,0.00,,CLR,0.00,VWS V14.01,2013-02-27 17:20:00,
2013-02-27 11:25:00,62.7,44.8,30.01,SSW,206,4.5,6.0,52,0.00,,CLR,0.00,VWS V14.01,2013-02-27 17:25:00,
2013-02-27 11:30:00,63.0,45.6,30.01,SW,226,0.0,4.5,53,0.00,,CLR,0.00,VWS V14.01,2013-02-27 17:30:00,
2013-02-27 11:34:00,63.1,44.2,30.00,WNW,298,3.0,10.5,50,0.00,,CLR,0.00,VWS V14.01,2013-02-27 17:34:00,
2013-02-27 11:39:00,63.1,43.7,30.00,West,270,0.0,10.5,49,0.00,,CLR,0.00,VWS V14.01,2013-02-27 17:39:00,
2013-02-27 11:44:00,63.5,45.1,30.00,WNW,292,3.0,9.0,51,0.00,,CLR,0.00,VWS V14.01,2013-02-27 17:44:00,
2013-02-27 11:49:00,63.4,43.9,30.00,WNW,291,3.0,10.5,49,0.00,,CLR,0.00,VWS V14.01,2013-02-27 17:49:00,
2013-02-27 11:54:00,63.4,42.3,30.00,NW,313,7.5,12.0,46,0.00,,CLR,0.00,VWS V14.01,2013-02-27 17:54:00,
2013-02-27 11:59:00,63.3,43.3,30.00,NW,321,9.0,15.0,48,0.00,,CLR,0.00,VWS V14.01,2013-02-27 17:59:00,
2013-02-27 12:04:00,63.6,43.6,30.00,NNE,15,4.5,9.0,48,0.00,,CLR,0.00,VWS V14.01,2013-02-27 18:04:00,
2013-02-27 12:09:00,63.7,43.1,29.99,WNW,291,7.5,9.0,47,0.00,,CLR,0.00,VWS V14.01,2013-02-27 18:09:00,
2013-02-27 12:14:00,64.1,44.6,29.99,WNW,290,0.0,6.0,49,0.00,,CLR,0.00,VWS V14.01,2013-02-27 18:14:00,
2013-02-27 12:19:00,64.5,43.3,29.98,SSW,194,1.5,10.5,46,0.00,,CLR,0.00,VWS V14.01,2013-02-27 18:19:00,
2013-02-27 12:24:00,65.0,44.3,29.98,WNW,286,0.0,6.0,47,0.00,,CLR,0.00,VWS V14.01,2013-02-27 18:24:00,
2013-02-27 12:29:00,65.1,43.3,29.97,WNW,289,0.0,12.0,45,0.00,,CLR,0.00,VWS V14.01,2013-02-27 18:29:00,
2013-02-27 12:34:00,65.1,43.8,29.97,WNW,294,4.5,10.5,46,0.00,,CLR,0.00,VWS V14.01,2013-02-27 18:34:00,
2013-02-27 12:39:00,65.1,43.3,29.97,North,360,1.5,6.0,45,0.00,,CLR,0.00,VWS V14.01,2013-02-27 18:39:00,
2013-02-27 12:44:00,65.5,44.2,29.97,WSW,256,10.5,10.5,46,0.00,,CLR,0.00,VWS V14.01,2013-02-27 18:44:00,
2013-02-27 12:49:00,65.7,43.8,29.97,WSW,250,1.5,12.0,45,0.00,,CLR,0.00,VWS V14.01,2013-02-27 18:49:00,
2013-02-27 12:54:00,65.9,44.0,29.97,WNW,300,6.0,7.5,45,0.00,,CLR,0.00,VWS V14.01,2013-02-27 18:54:00,
2013-02-27 12:59:00,66.2,45.4,29.96,WSW,258,1.5,6.0,47,0.00,,CLR,0.00,VWS V14.01,2013-02-27 18:59:00,
2013-02-27 13:04:00,66.9,44.3,29.96,NNW,331,6.0,10.5,44,0.00,,CLR,0.00,VWS V14.01,2013-02-27 19:04:00,
2013-02-27 13:09:00,66.7,44.1,29.96,NW,325,1.5,10.5,44,0.00,,CLR,0.00,VWS V14.01,2013-02-27 19:09:00,
2013-02-27 13:14:00,66.7,43.5,29.96,WNW,299,12.0,12.0,43,0.00,,CLR,0.00,VWS V14.01,2013-02-27 19:14:00,
2013-02-27 13:19:00,66.3,41.9,29.96,WNW,296,10.5,10.5,41,0.00,,CLR,0.00,VWS V14.01,2013-02-27 19:19:00,
2013-02-27 13:24:00,66.3,43.2,29.95,WNW,301,0.0,7.5,43,0.00,,CLR,0.00,VWS V14.01,2013-02-27 19:24:00,
2013-02-27 13:29:00,66.9,43.7,29.95,WNW,284,3.0,7.5,43,0.00,,CLR,0.00,VWS V14.01,2013-02-27 19:29:00,
2013-02-27 13:34:00,66.9,43.1,29.95,NNW,328,4.5,9.0,42,0.00,,CLR,0.00,VWS V14.01,2013-02-27 19:34:00,
2013-02-27 13:39:00,66.8,43.0,29.94,NNW,333,0.0,10.5,42,0.00,,CLR,0.00,VWS V14.01,2013-02-27 19:39:00,
2013-02-27 13:44:00,67.1,43.3,29.94,WSW,238,0.0,10.5,42,0.00,,CLR,0.00,VWS V14.01,2013-02-27 19:44:00,
2013-02-27 13:49:00,67.7,45.0,29.93,WNW,293,6.0,9.0,44,0.00,,CLR,0.00,VWS V14.01,2013-02-27 19:49:00,
2013-02-27 13:54:00,68.2,44.3,29.93,NW,313,3.0,4.5,42,0.00,,CLR,0.00,VWS V14.01,2013-02-27 19:54:00,
2013-02-27 13:59:00,68.4,42.5,29.93,West,265,10.5,13.5,39,0.00,,CLR,0.00,VWS V14.01,2013-02-27 19:59:00,
2013-02-27 14:04:00,68.4,44.4,29.93,SW,228,4.5,9.0,42,0.00,,CLR,0.00,VWS V14.01,2013-02-27 20:04:00,
2013-02-27 14:09:00,68.3,43.1,29.93,SSW,213,4.5,10.5,40,0.00,,CLR,0.00,VWS V14.01,2013-02-27 20:09:00,
2013-02-27 14:14:00,68.0,42.1,29.93,SW,227,4.5,13.5,39,0.00,,CLR,0.00,VWS V14.01,2013-02-27 20:14:00,
2013-02-27 14:19:00,68.5,43.2,29.93,West,268,3.0,7.5,40,0.00,,CLR,0.00,VWS V14.01,2013-02-27 20:19:00,
2013-02-27 14:24:00,68.9,43.0,29.93,NW,325,4.5,10.5,39,0.00,,CLR,0.00,VWS V14.01,2013-02-27 20:24:00,
2013-02-27 14:29:00,68.7,42.8,29.93,WSW,244,6.0,15.0,39,0.00,,CLR,0.00,VWS V14.01,2013-02-27 20:29:00,
2013-02-27 14:34:00,68.7,42.1,29.93,NNW,338,3.0,7.5,38,0.00,,CLR,0.00,VWS V14.01,2013-02-27 20:34:00,
2013-02-27 14:39:00,68.8,42.9,29.93,WNW,295,7.5,12.0,39,0.00,,CLR,0.00,VWS V14.01,2013-02-27 20:39:00,
2013-02-27 14:44:00,69.0,45.0,29.93,WNW,298,4.5,6.0,42,0.00,,CLR,0.00,VWS V14.01,2013-02-27 20:44:00,
2013-02-27 14:49:00,69.2,45.2,29.93,SW,232,9.0,12.0,42,0.00,,CLR,0.00,VWS V14.01,2013-02-27 20:49:00,
2013-02-27 14:54:00,69.0,43.0,29.93,West,261,1.5,10.5,39,0.00,,CLR,0.00,VWS V14.01,2013-02-27 20:54:00,
2013-02-27 14:59:00,69.0,43.7,29.93,WNW,293,9.0,12.0,40,0.00,,CLR,0.00,VWS V14.01,2013-02-27 20:59:00,
2013-02-27 15:04:00,68.8,43.5,29.93,WSW,257,4.5,12.0,40,0.00,,CLR,0.00,VWS V14.01,2013-02-27 21:04:00,
2013-02-27 15:09:00,69.3,44.6,29.93,NW,315,3.0,7.5,41,0.00,,CLR,0.00,VWS V14.01,2013-02-27 21:09:00,
2013-02-27 15:14:00,69.3,43.3,29.92,WSW,242,6.0,10.5,39,0.00,,CLR,0.00,VWS V14.01,2013-02-27 21:14:00,
2013-02-27 15:19:00,69.2,42.5,29.92,West,280,3.0,9.0,38,0.00,,CLR,0.00,VWS V14.01,2013-02-27 21:19:00,
2013-02-27 15:24:00,69.2,43.2,29.92,WNW,294,4.5,6.0,39,0.00,,CLR,0.00,VWS V14.01,2013-02-27 21:24:00,
2013-02-27 15:29:00,69.3,43.3,29.92,WNW,297,9.0,12.0,39,0.00,,CLR,0.00,VWS V14.01,2013-02-27 21:29:00,
2013-02-27 15:34:00,69.4,43.4,29.92,West,266,6.0,9.0,39,0.00,,CLR,0.00,VWS V14.01,2013-02-27 21:34:00,
2013-02-27 15:39:00,69.5,42.1,29.92,SSE,156,3.0,9.0,37,0.00,,CLR,0.00,VWS V14.01,2013-02-27 21:39:00,
2013-02-27 15:44:00,69.6,42.2,29.92,NW,325,7.5,7.5,37,0.00,,CLR,0.00,VWS V14.01,2013-02-27 21:44:00,
2013-02-27 15:49:00,69.6,41.5,29.92,WNW,295,7.5,10.5,36,0.00,,CLR,0.00,VWS V14.01,2013-02-27 21:49:00,
2013-02-27 15:54:00,69.3,40.5,29.92,NW,313,7.5,13.5,35,0.00,,CLR,0.00,VWS V14.01,2013-02-27 21:54:00,
2013-02-27 15:59:00,69.2,41.8,29.92,WNW,293,6.0,12.0,37,0.00,,CLR,0.00,VWS V14.01,2013-02-27 21:59:00,
2013-02-27 16:04:00,69.3,42.6,29.92,NNW,328,4.5,4.5,38,0.00,,CLR,0.00,VWS V14.01,2013-02-27 22:04:00,
2013-02-27 16:09:00,69.6,42.2,29.92,WNW,299,10.5,10.5,37,0.00,,CLR,0.00,VWS V14.01,2013-02-27 22:09:00,
2013-02-27 16:14:00,69.3,42.6,29.92,NW,325,4.5,7.5,38,0.00,,CLR,0.00,VWS V14.01,2013-02-27 22:14:00,
2013-02-27 16:19:00,68.8,42.9,29.92,WNW,297,9.0,12.0,39,0.00,,CLR,0.00,VWS V14.01,2013-02-27 22:19:00,
2013-02-27 16:24:00,68.7,42.8,29.92,WNW,294,12.0,13.5,39,0.00,,CLR,0.00,VWS V14.01,2013-02-27 22:24:00,
2013-02-27 16:29:00,68.5,43.2,29.92,North,5,0.0,9.0,40,0.00,,CLR,0.00,VWS V14.01,2013-02-27 22:29:00,
2013-02-27 16:34:00,68.3,43.1,29.92,WNW,295,3.0,12.0,40,0.00,,CLR,0.00,VWS V14.01,2013-02-27 22:34:00,
2013-02-27 16:39:00,68.3,42.4,29.92,WNW,300,3.0,12.0,39,0.00,,CLR,0.00,VWS V14.01,2013-02-27 22:39:00,
2013-02-27 16:44:00,68.3,43.7,29.92,West,259,0.0,9.0,41,0.00,,CLR,0.00,VWS V14.01,2013-02-27 22:44:00,
2013-02-27 16:49:00,68.0,43.5,29.92,WSW,244,6.0,9.0,41,0.00,,CLR,0.00,VWS V14.01,2013-02-27 22:49:00,
2013-02-27 16:54:00,67.7,44.4,29.92,WNW,288,7.5,7.5,43,0.00,,CLR,0.00,VWS V14.01,2013-02-27 22:54:00,
2013-02-27 16:59:00,67.7,44.4,29.92,WNW,288,3.0,10.5,43,0.00,,CLR,0.00,VWS V14.01,2013-02-27 22:59:00,
2013-02-27 17:04:00,67.5,44.8,29.92,SW,231,13.5,18.0,44,0.00,,CLR,0.00,VWS V14.01,2013-02-27 23:04:00,
2013-02-27 17:09:00,67.1,45.1,29.92,West,264,3.0,12.0,45,0.00,,CLR,0.00,VWS V14.01,2013-02-27 23:09:00,
2013-02-27 17:14:00,66.9,45.5,29.92,WSW,241,6.0,13.5,46,0.00,,CLR,0.00,VWS V14.01,2013-02-27 23:14:00,
2013-02-27 17:19:00,66.3,46.0,29.92,West,270,1.5,12.0,48,0.00,,CLR,0.00,VWS V14.01,2013-02-27 23:19:00,
2013-02-27 17:24:00,65.6,46.5,29.92,WSW,255,3.0,18.0,50,0.00,,CLR,0.00,VWS V14.01,2013-02-27 23:24:00,
2013-02-27 17:29:00,65.1,47.1,29.93,SW,228,7.5,10.5,52,0.00,,CLR,0.00,VWS V14.01,2013-02-27 23:29:00,
2013-02-27 17:34:00,64.7,47.2,29.92,WSW,240,3.0,9.0,53,0.00,,CLR,0.00,VWS V14.01,2013-02-27 23:34:00,
2013-02-27 17:39:00,64.4,47.4,29.92,WNW,301,3.0,10.5,54,0.00,,CLR,0.00,VWS V14.01,2013-02-27 23:39:00,
2013-02-27 17:44:00,64.2,46.7,29.92,West,261,0.0,10.5,53,0.00,,CLR,0.00,VWS V14.01,2013-02-27 23:44:00,
2013-02-27 17:49:00,64.0,47.0,29.93,NW,321,4.5,12.0,54,0.00,,CLR,0.00,VWS V14.01,2013-02-27 23:49:00,
2013-02-27 17:54:00,63.9,47.0,29.93,WNW,302,4.5,6.0,54,0.00,,CLR,0.00,VWS V14.01,2013-02-27 23:54:00,
2013-02-27 17:59:00,63.7,47.2,29.93,SW,229,4.5,4.5,55,0.00,,CLR,0.00,VWS V14.01,2013-02-27 23:59:00,
2013-02-27 18:04:00,63.3,47.3,29.93,SW,220,6.0,10.5,56,0.00,,CLR,0.00,VWS V14.01,2013-02-28 00:04:00,
2013-02-27 18:09:00,62.9,47.9,29.94,SW,229,0.0,4.5,58,0.00,,CLR,0.00,VWS V14.01,2013-02-28 00:09:00,
2013-02-27 18:14:00,62.6,47.6,29.94,West,259,0.0,7.5,58,0.00,,CLR,0.00,VWS V14.01,2013-02-28 00:14:00,
2013-02-27 18:19:00,62.3,47.8,29.94,WSW,257,1.5,4.5,59,0.00,,CLR,0.00,VWS V14.01,2013-02-28 00:19:00,
2013-02-27 18:24:00,62.1,48.1,29.94,WNW,288,0.0,9.0,60,0.00,,CLR,0.00,VWS V14.01,2013-02-28 00:24:00,
2013-02-27 18:29:00,61.8,48.2,29.94,SW,232,0.0,7.5,61,0.00,,CLR,0.00,VWS V14.01,2013-02-28 00:29:00,
2013-02-27 18:34:00,61.5,48.4,29.94,SSW,213,0.0,4.5,62,0.00,,CLR,0.00,VWS V14.01,2013-02-28 00:34:00,
2013-02-27 18:39:00,61.3,48.6,29.95,West,281,1.5,4.5,63,0.00,,CLR,0.00,VWS V14.01,2013-02-28 00:39:00,
2013-02-27 18:44:00,61.1,48.8,29.95,WNW,293,0.0,6.0,64,0.00,,CLR,0.00,VWS V14.01,2013-02-28 00:44:00,
2013-02-27 18:49:00,60.9,48.7,29.95,West,268,6.0,6.0,64,0.00,,CLR,0.00,VWS V14.01,2013-02-28 00:49:00,
2013-02-27 18:54:00,60.8,49.0,29.95,SW,220,1.5,6.0,65,0.00,,CLR,0.00,VWS V14.01,2013-02-28 00:54:00,
2013-02-27 18:59:00,60.7,49.3,29.95,West,275,0.0,3.0,66,0.00,,CLR,0.00,VWS V14.01,2013-02-28 00:59:00,
2013-02-27 19:04:00,60.6,49.2,29.95,West,269,0.0,6.0,66,0.00,,OVC080,0.00,VWS V14.01,2013-02-28 01:04:00,
2013-02-27 19:09:00,60.5,49.5,29.95,West,260,3.0,7.5,67,0.00,,OVC080,0.00,VWS V14.01,2013-02-28 01:09:00,
2013-02-27 19:14:00,60.3,49.3,29.96,WSW,249,1.5,1.5,67,0.00,,OVC080,0.00,VWS V14.01,2013-02-28 01:14:00,
2013-02-27 19:19:00,60.1,49.5,29.96,WSW,249,0.0,3.0,68,0.00,,OVC080,0.00,VWS V14.01,2013-02-28 01:19:00,
2013-02-27 19:24:00,59.8,49.6,29.96,WSW,250,1.5,1.5,69,0.00,,OVC080,0.00,VWS V14.01,2013-02-28 01:24:00,
2013-02-27 19:29:00,59.6,49.8,29.96,West,263,1.5,4.5,70,0.00,,OVC080,0.00,VWS V14.01,2013-02-28 01:29:00,
2013-02-27 19:34:00,59.6,49.8,29.96,WSW,245,1.5,3.0,70,0.00,,OVC080,0.00,VWS V14.01,2013-02-28 01:34:00,
2013-02-27 19:39:00,59.5,50.1,29.96,West,259,3.0,4.5,71,0.00,,OVC080,0.00,VWS V14.01,2013-02-28 01:39:00,
2013-02-27 19:44:00,59.6,50.2,29.96,WNW,285,7.5,7.5,71,0.00,,OVC080,0.00,VWS V14.01,2013-02-28 01:44:00,
2013-02-27 19:49:00,59.7,50.7,29.96,SW,236,0.0,6.0,72,0.00,,OVC080,0.00,VWS V14.01,2013-02-28 01:49:00,
2013-02-27 19:54:00,59.8,50.8,29.97,SW,223,4.5,9.0,72,0.00,,OVC080,0.00,VWS V14.01,2013-02-28 01:54:00,
2013-02-27 19:59:00,59.9,50.9,29.97,WNW,282,0.0,7.5,72,0.00,,OVC080,0.00,VWS V14.01,2013-02-28 01:59:00,
2013-02-27 20:04:00,59.9,51.2,29.97,WNW,295,0.0,4.5,73,0.00,,OVC065,0.00,VWS V14.01,2013-02-28 02:04:00,
2013-02-27 20:09:00,59.9,51.2,29.97,West,273,3.0,6.0,73,0.00,,OVC065,0.00,VWS V14.01,2013-02-28 02:09:00,
2013-02-27 20:14:00,59.8,51.5,29.97,SW,230,0.0,4.5,74,0.00,,OVC065,0.00,VWS V14.01,2013-02-28 02:14:00,
2013-02-27 20:19:00,59.7,51.4,29.97,SW,232,0.0,7.5,74,0.00,,OVC065,0.00,VWS V14.01,2013-02-28 02:19:00,
2013-02-27 20:24:00,59.5,51.6,29.97,WNW,292,0.0,1.5,75,0.00,,OVC065,0.00,VWS V14.01,2013-02-28 02:24:00,
2013-02-27 20:29:00,59.4,51.5,29.98,West,263,0.0,6.0,75,0.00,,OVC065,0.00,VWS V14.01,2013-02-28 02:29:00,
2013-02-27 20:34:00,59.4,51.5,29.98,WNW,296,1.5,7.5,75,0.00,,OVC065,0.00,VWS V14.01,2013-02-28 02:34:00,
2013-02-27 20:39:00,59.4,51.5,29.98,WNW,296,1.5,9.0,75,0.00,,OVC065,0.00,VWS V14.01,2013-02-28 02:39:00,
2013-02-27 20:44:00,59.4,51.8,29.98,West,268,0.0,6.0,76,0.00,,OVC065,0.00,VWS V14.01,2013-02-28 02:44:00,
2013-02-27 20:49:00,59.3,51.8,29.98,NW,323,1.5,6.0,76,0.00,,OVC065,0.00,VWS V14.01,2013-02-28 02:49:00,
2013-02-27 20:54:00,59.3,51.8,29.99,WNW,286,1.5,6.0,76,0.00,,OVC065,0.00,VWS V14.01,2013-02-28 02:54:00,
2013-02-27 20:59:00,59.3,51.8,29.99,WNW,288,4.5,6.0,76,0.00,,OVC065,0.00,VWS V14.01,2013-02-28 02:59:00,
2013-02-27 21:04:00,59.3,51.8,29.99,NW,311,0.0,1.5,76,0.00,,CLR,0.00,VWS V14.01,2013-02-28 03:04:00,
2013-02-27 21:09:00,59.2,51.7,29.99,NNW,330,4.5,4.5,76,0.00,,CLR,0.00,VWS V14.01,2013-02-28 03:09:00,
2013-02-27 21:14:00,58.9,51.7,30.00,North,360,0.0,4.5,77,0.00,,CLR,0.00,VWS V14.01,2013-02-28 03:14:00,
2013-02-27 21:19:00,58.9,51.7,30.00,NNW,342,0.0,7.5,77,0.00,,CLR,0.00,VWS V14.01,2013-02-28 03:19:00,
2013-02-27 21:24:00,58.9,51.7,30.00,North,350,4.5,6.0,77,0.00,,CLR,0.00,VWS V14.01,2013-02-28 03:24:00,
2013-02-27 21:29:00,58.9,50.6,30.00,North,5,3.0,13.5,74,0.00,,CLR,0.00,VWS V14.01,2013-02-28 03:29:00,
2013-02-27 21:34:00,58.8,50.5,30.00,NE,38,6.0,6.0,74,0.00,,CLR,0.00,VWS V14.01,2013-02-28 03:34:00,
2013-02-27 21:39:00,58.5,46.8,30.01,North,5,0.0,9.0,65,0.00,,CLR,0.00,VWS V14.01,2013-02-28 03:39:00,
2013-02-27 21:44:00,58.6,44.8,30.01,NNE,22,6.0,7.5,60,0.00,,CLR,0.00,VWS V14.01,2013-02-28 03:44:00,
2013-02-27 21:49:00,58.7,44.4,30.01,ENE,67,4.5,9.0,59,0.00,,CLR,0.00,VWS V14.01,2013-02-28 03:49:00,
2013-02-27 21:54:00,58.8,43.6,30.01,North,5,1.5,13.5,57,0.00,,CLR,0.00,VWS V14.01,2013-02-28 03:54:00,
2013-02-27 21:59:00,58.8,44.1,30.01,NNE,32,3.0,7.5,58,0.00,,CLR,0.00,VWS V14.01,2013-02-28 03:59:00,
2013-02-27 22:04:00,58.6,43.9,30.01,North,360,1.5,7.5,58,0.00,,BKN060,0.00,VWS V14.01,2013-02-28 04:04:00,
2013-02-27 22:09:00,58.5,43.8,30.01,NNE,22,0.0,7.5,58,0.00,,BKN060,0.00,VWS V14.01,2013-02-28 04:09:00,
2013-02-27 22:14:00,58.2,43.5,30.02,North,5,3.0,7.5,58,0.00,,BKN060,0.00,VWS V14.01,2013-02-28 04:14:00,
2013-02-27 22:19:00,58.0,43.8,30.02,NNE,30,0.0,7.5,59,0.00,,BKN060,0.00,VWS V14.01,2013-02-28 04:19:00,
2013-02-27 22:24:00,57.7,43.5,30.02,NNE,15,4.5,7.5,59,0.00,,BKN060,0.00,VWS V14.01,2013-02-28 04:24:00,
2013-02-27 22:29:00,57.6,43.8,30.03,NNE,28,0.0,4.5,60,0.00,,BKN060,0.00,VWS V14.01,2013-02-28 04:29:00,
2013-02-27 22:34:00,57.4,43.6,30.02,NE,36,0.0,4.5,60,0.00,,BKN060,0.00,VWS V14.01,2013-02-28 04:34:00,
2013-02-27 22:39:00,57.2,43.5,30.02,NNE,21,0.0,1.5,60,0.00,,BKN060,0.00,VWS V14.01,2013-02-28 04:39:00,
2013-02-27 22:44:00,56.9,43.6,30.03,NNE,21,0.0,1.5,61,0.00,,BKN060,0.00,VWS V14.01,2013-02-28 04:44:00,
2013-02-27 22:49:00,56.7,43.4,30.03,NNE,27,0.0,3.0,61,0.00,,BKN060,0.00,VWS V14.01,2013-02-28 04:49:00,
2013-02-27 22:54:00,56.5,43.7,30.02,NE,50,0.0,7.5,62,0.00,,BKN060,0.00,VWS V14.01,2013-02-28 04:54:00,
2013-02-27 22:59:00,56.6,42.0,30.03,NNE,21,1.5,9.0,58,0.00,,BKN060,0.00,VWS V14.01,2013-02-28 04:59:00,
2013-02-27 23:00:00,56.6,42.0,30.03,NE,40,1.5,9.0,58,0.00,,BKN060,0.00,VWS V14.01,2013-02-28 05:00:00,
2013-02-27 23:05:00,56.9,41.4,30.03,North,355,4.5,12.0,56,0.00,,BKN065,0.00,VWS V14.01,2013-02-28 05:05:00,
2013-02-27 23:10:00,56.9,41.8,30.03,NNE,28,0.0,4.5,57,0.00,,BKN065,0.00,VWS V14.01,2013-02-28 05:10:00,
2013-02-27 23:15:00,56.9,41.4,30.03,NNE,15,6.0,9.0,56,0.00,,BKN065,0.00,VWS V14.01,2013-02-28 05:15:00,
2013-02-27 23:20:00,56.9,41.4,30.03,NNE,26,0.0,6.0,56,0.00,,BKN065,0.00,VWS V14.01,2013-02-28 05:20:00,
2013-02-27 23:25:00,56.8,41.3,30.04,NNE,28,7.5,7.5,56,0.00,,BKN065,0.00,VWS V14.01,2013-02-28 05:25:00,
2013-02-27 23:30:00,56.8,40.8,30.03,North,5,3.0,7.5,55,0.00,,BKN065,0.00,VWS V14.01,2013-02-28 05:30:00,
2013-02-27 23:35:00,56.6,40.6,30.03,NNW,341,7.5,7.5,55,0.00,,BKN065,0.00,VWS V14.01,2013-02-28 05:35:00,
2013-02-27 23:40:00,56.3,40.4,30.03,NNE,22,3.0,9.0,55,0.00,,BKN065,0.00,VWS V14.01,2013-02-28 05:40:00,
2013-02-27 23:45:00,56.2,40.3,30.03,NE,34,0.0,9.0,55,0.00,,BKN065,0.00,VWS V14.01,2013-02-28 05:45:00,
2013-02-27 23:50:00,55.9,40.0,30.04,NE,44,7.5,10.5,55,0.00,,BKN065,0.00,VWS V14.01,2013-02-28 05:50:00,
2013-02-27 23:55:00,55.6,40.2,30.04,North,5,6.0,9.0,56,0.00,,BKN065,0.00,VWS V14.01,2013-02-28 05:55:00,